Change the Weather History Date:

Tuesday, March 19, 2013

  Actual Average Record
Temperature  
Mean Temperature 48 °F 49 °F  
Max Temperature 59 °F 64 °F 96 °F (1907)
Min Temperature 36 °F 34 °F 12 °F (1906)
Degree Days  
Heating Degree Days 17 16  
Month to date heating degree days 270 356  
Since 1 July heating degree days 3135 3633  
Cooling Degree Days 0 0  
Month to date cooling degree days 0 0  
Year to date cooling degree days 0 0  
Moisture  
Dew Point 27 °F    
Average Humidity 46    
Maximum Humidity 59    
Minimum Humidity 32    
Precipitation  
Precipitation 0.00 in 0.05 in 0.61 in (1983)
Month to date precipitation 0.15 0.79  
Year to date precipitation 3.44 2.07  
Snow  
Snow 0.00 in 0.10 in 6.00 in (1983)
Month to date snowfall T 1.8  
Since 1 July snowfall 29.6 15.8  
Snow Depth 0.00 in    
Sea Level Pressure  
Sea Level Pressure 30.02 in    
Wind  
Wind Speed 11 mph (East)    
Max Wind Speed 22 mph    
Max Gust Speed 25 mph    
Visibility 10 miles    
Events      
T = Trace of Precipitation, MM = Missing Value Source: NWS Daily Summary

Daily Weather History Graph

Daily Weather History Graph

Search for Another Location

Airport or City:

Trip Planner

Search our weather history database for the weather conditions in past years. The results will help you decide how hot, cold, wet, or windy it might be!

Date:

Astronomy

Mar. 19, 2013 Rise Set
Actual Time 7:51 AM CDT 7:58 PM CDT
Civil Twilight 7:26 AM CDT 8:23 PM CDT
Nautical Twilight 6:56 AM CDT 8:52 PM CDT
Astronomical Twilight 6:26 AM CDT 9:22 PM CDT
Moon 12:55 PM CDT 2:34 AM CDT
Length of Visible Light 12h 57m
Length of Day
12h 06m
Waxing Crescent, 50% of the Moon is Illuminated
Mar 19
Waxing Crescent
Mar 19
First Quarter
Mar 27
Full
Apr 2
Last Quarter
Apr 10
New

Hourly Weather History & Observations

Time (CDT) Temp. Windchill Dew Point Humidity Pressure Visibility Wind Dir Wind Speed Gust Speed Precip Events Conditions
12:53 AM 46.0 °F 40.2 °F 24.1 °F 42% 29.92 in 10.0 mi SSE 12.7 mph - N/A   Clear
1:53 AM 44.1 °F 37.4 °F 24.1 °F 45% 29.93 in 10.0 mi South 13.8 mph - N/A   Clear
2:53 AM 43.0 °F 35.4 °F 25.0 °F 49% 29.92 in 10.0 mi South 16.1 mph - N/A   Clear
3:53 AM 42.1 °F 35.2 °F 25.0 °F 51% 29.91 in 10.0 mi South 12.7 mph - N/A   Clear
4:53 AM 41.0 °F 33.9 °F 25.0 °F 53% 29.90 in 10.0 mi South 12.7 mph - N/A   Clear
5:53 AM 41.0 °F 33.5 °F 26.1 °F 55% 29.90 in 10.0 mi South 13.8 mph - N/A   Clear
6:53 AM 39.9 °F 33.4 °F 26.1 °F 58% 29.92 in 10.0 mi South 10.4 mph - N/A   Clear
7:53 AM 37.0 °F 32.4 °F 25.0 °F 62% 29.95 in 10.0 mi ESE 5.8 mph - N/A   Clear
8:53 AM 39.9 °F 32.9 °F 26.1 °F 58% 29.97 in 10.0 mi SE 11.5 mph - N/A   Clear
9:53 AM 45.0 °F 38.9 °F 27.0 °F 49% 29.99 in 10.0 mi SE 12.7 mph - N/A   Clear
10:53 AM 46.9 °F - 28.9 °F 50% 30.01 in 10.0 mi SE 11.5 mph - N/A   Clear
11:53 AM 48.9 °F - 30.9 °F 50% 30.02 in 10.0 mi ESE 8.1 mph - N/A   Clear
12:53 PM 51.1 °F - 33.1 °F 50% 30.02 in 10.0 mi SSE 5.8 mph - N/A   Clear
1:53 PM 54.0 °F - 34.0 °F 47% 30.04 in 10.0 mi NNE 5.8 mph - N/A   Clear
2:53 PM 55.9 °F - 35.1 °F 45% 30.03 in 10.0 mi NNE 8.1 mph - N/A   Clear
3:53 PM 57.9 °F - 33.1 °F 39% 30.02 in 10.0 mi NNE 18.4 mph - N/A   Clear
4:53 PM 55.9 °F - 30.0 °F 37% 30.04 in 10.0 mi NNE 17.3 mph 25.3 mph N/A   Partly Cloudy
5:53 PM 55.0 °F - 28.0 °F 35% 30.08 in 10.0 mi NNE 18.4 mph - N/A   Overcast
6:53 PM 53.1 °F - 25.0 °F 34% 30.10 in 10.0 mi NNE 15.0 mph - N/A   Mostly Cloudy
7:53 PM 51.1 °F - 26.1 °F 38% 30.12 in 10.0 mi NE 12.7 mph - N/A   Mostly Cloudy
8:53 PM 48.0 °F - 27.0 °F 44% 30.15 in 10.0 mi NNE 9.2 mph - N/A   Clear
9:53 PM 46.9 °F - 23.0 °F 39% 30.18 in 10.0 mi NNE 9.2 mph - N/A   Clear
10:53 PM 44.1 °F 39.0 °F 19.0 °F 37% 30.21 in 10.0 mi NE 9.2 mph - N/A   Clear
11:53 PM 41.0 °F 37.1 °F 19.0 °F 41% 30.23 in 10.0 mi NE 5.8 mph - N/A   Clear